When you browse on this site, cookies collect data to enhance your experience and personalize the content and advertising you see.
Visit our Privacy Policy to learn more. By continuing to use the site, you agree to this use of cookies and data.
  • In Österreich
  • Länderverzeichnis
  • Für 7 Tage
  • Wassertemperatur
  • Satellitenkarten
  • Wetterkarte
  • News
  • Widgets
  • user-avatar
    Anmelden

    Stündliche Wetter Brisbane

    Heute, 24 März, Sonntag

    Zeit Temperatur Niederschläge Wind Luftdruck Luftfeuchtigkeit
    00:00 +25°C° 0 mm 2 m/S 759 mmHg 83%
    01:00 +25°C° 0 mm 2 m/S 759 mmHg 84%
    02:00 +25°C° 0 mm 2 m/S 759 mmHg 84%
    03:00 +24°C° 0 mm 2 m/S 759 mmHg 84%
    04:00 +24°C° 0 mm 1 m/S 759 mmHg 83%
    05:00 +24°C° 0 mm 1 m/S 759 mmHg 81%
    06:00 +25°C° 0 mm 1 m/S 759 mmHg 80%
    07:00 +25°C° 0 mm 1 m/S 760 mmHg 78%
    08:00 +28°C° 0 mm 1 m/S 760 mmHg 68%
    09:00 +31°C° 0 mm 1 m/S 759 mmHg 57%
    10:00 +32°C° 0 mm 0 m/S 760 mmHg 48%
    11:00 +35°C° 0 mm 1 m/S 759 mmHg 45%
    12:00 +37°C° 0 mm 2 m/S 759 mmHg 41%
    13:00 +38°C° 0 mm 2 m/S 758 mmHg 38%
    14:00 +37°C° 0 mm 3 m/S 758 mmHg 41%
    15:00 +36°C° 0 mm 3 m/S 758 mmHg 44%
    16:00 +35°C° 0 mm 3 m/S 757 mmHg 50%
    17:00 +33°C° 0 mm 3 m/S 758 mmHg 57%
    18:00 +30°C° 0 mm 3 m/S 758 mmHg 64%
    19:00 +29°C° 0 mm 3 m/S 758 mmHg 70%
    20:00 +28°C° 0 mm 3 m/S 758 mmHg 72%
    21:00 +27°C° 0 mm 3 m/S 759 mmHg 74%
    22:00 +27°C° 0 mm 3 m/S 759 mmHg 79%
    23:00 +26°C° 0 mm 3 m/S 759 mmHg 81%

    Morgen, 25 März, Montag

    Zeit Temperatur Niederschläge Wind Luftdruck Luftfeuchtigkeit
    00:00 +26°C° 0 mm 2 m/S 759 mmHg 83%
    01:00 +25°C° 0 mm 2 m/S 759 mmHg 84%
    02:00 +25°C° 0 mm 2 m/S 759 mmHg 85%
    03:00 +25°C° 0 mm 2 m/S 759 mmHg 86%
    04:00 +24°C° 0 mm 2 m/S 759 mmHg 86%
    05:00 +25°C° 0 mm 2 m/S 759 mmHg 84%
    06:00 +25°C° 0 mm 2 m/S 759 mmHg 82%
    07:00 +25°C° 0 mm 2 m/S 759 mmHg 80%
    08:00 +28°C° 0 mm 2 m/S 759 mmHg 69%
    09:00 +30°C° 0 mm 2 m/S 759 mmHg 58%
    10:00 +32°C° 0 mm 2 m/S 759 mmHg 47%
    11:00 +34°C° 0 mm 3 m/S 759 mmHg 45%
    12:00 +35°C° 0 mm 3 m/S 758 mmHg 42%
    13:00 +36°C° 0 mm 4 m/S 758 mmHg 39%
    14:00 +36°C° 0 mm 4 m/S 758 mmHg 44%
    15:00 +35°C° 0 mm 4 m/S 757 mmHg 48%
    16:00 +34°C° 0 mm 5 m/S 757 mmHg 52%
    17:00 +33°C° 0 mm 5 m/S 758 mmHg 60%
    18:00 +30°C° 0 mm 4 m/S 758 mmHg 68%
    19:00 +28°C° 0 mm 4 m/S 758 mmHg 75%
    20:00 +28°C° 0 mm 4 m/S 759 mmHg 76%
    21:00 +28°C° 0 mm 4 m/S 759 mmHg 77%
    22:00 +28°C° 0 mm 3 m/S 760 mmHg 78%
    23:00 +27°C° 0 mm 3 m/S 759 mmHg 80%

    übermorgen, 26 März, Dienstag

    Zeit Temperatur Niederschläge Wind Luftdruck Luftfeuchtigkeit
    00:00 +27°C° 0 mm 3 m/S 759 mmHg 83%
    01:00 +26°C° 0 mm 2 m/S 759 mmHg 85%
    02:00 +26°C° 0 mm 2 m/S 759 mmHg 84%
    03:00 +26°C° 0 mm 2 m/S 759 mmHg 84%
    04:00 +26°C° 0 mm 2 m/S 759 mmHg 83%
    05:00 +26°C° 0 mm 2 m/S 759 mmHg 82%
    06:00 +26°C° 0 mm 2 m/S 760 mmHg 81%
    07:00 +26°C° 0 mm 2 m/S 760 mmHg 80%
    08:00 +28°C° 0 mm 2 m/S 760 mmHg 70%
    09:00 +30°C° 0 mm 2 m/S 760 mmHg 61%
    10:00 +32°C° 0 mm 2 m/S 761 mmHg 52%
    11:00 +34°C° 0 mm 2 m/S 760 mmHg 49%
    12:00 +35°C° 0 mm 2 m/S 760 mmHg 46%
    13:00 +36°C° 0 mm 2 m/S 759 mmHg 43%
    14:00 +32°C° 0.3 mm 2 m/S 759 mmHg 54%
    15:00 +30°C° 0.3 mm 2 m/S 759 mmHg 65%
    16:00 +28°C° 0.3 mm 2 m/S 758 mmHg 77%
    17:00 +27°C° 0 mm 2 m/S 759 mmHg 77%
    18:00 +27°C° 0 mm 2 m/S 760 mmHg 78%
    19:00 +27°C° 0 mm 1 m/S 760 mmHg 79%
    20:00 +27°C° 0.1 mm 1 m/S 761 mmHg 80%
    21:00 +27°C° 0.1 mm 1 m/S 761 mmHg 80%
    22:00 +26°C° 0.1 mm 1 m/S 762 mmHg 81%
    23:00 +26°C° 0.4 mm 2 m/S 762 mmHg 83%

    27 März, Mittwoch

    Zeit Temperatur Niederschläge Wind Luftdruck Luftfeuchtigkeit
    00:00 +26°C° 0.4 mm 2 m/S 761 mmHg 85%
    01:00 +25°C° 0.4 mm 2 m/S 761 mmHg 86%
    02:00 +25°C° 0.4 mm 3 m/S 761 mmHg 87%
    03:00 +25°C° 0.4 mm 3 m/S 761 mmHg 88%
    04:00 +25°C° 0.4 mm 3 m/S 761 mmHg 89%
    05:00 +25°C° 0.5 mm 4 m/S 761 mmHg 88%
    06:00 +25°C° 0.5 mm 4 m/S 761 mmHg 88%
    07:00 +23°C° 0.5 mm 4 m/S 762 mmHg 87%
    08:00 +25°C° 0.1 mm 4 m/S 762 mmHg 85%
    09:00 +25°C° 0.1 mm 4 m/S 762 mmHg 83%
    10:00 +26°C° 0.1 mm 4 m/S 762 mmHg 80%
    11:00 +25°C° 1 mm 4 m/S 762 mmHg 82%
    12:00 +25°C° 1 mm 4 m/S 762 mmHg 84%
    13:00 +25°C° 1 mm 3 m/S 761 mmHg 86%
    14:00 +25°C° 0.7 mm 3 m/S 761 mmHg 87%
    15:00 +24°C° 0.7 mm 3 m/S 761 mmHg 87%
    16:00 +24°C° 0.7 mm 3 m/S 761 mmHg 88%
    17:00 +24°C° 0.5 mm 3 m/S 761 mmHg 89%
    18:00 +24°C° 0.5 mm 3 m/S 761 mmHg 90%
    19:00 +22°C° 0.5 mm 3 m/S 761 mmHg 91%
    20:00 +22°C° 0.8 mm 3 m/S 761 mmHg 91%
    21:00 +22°C° 0.8 mm 3 m/S 762 mmHg 91%
    22:00 +22°C° 0.8 mm 3 m/S 762 mmHg 91%
    23:00 +22°C° 1.2 mm 3 m/S 761 mmHg 92%

    28 März, Donnerstag

    Zeit Temperatur Niederschläge Wind Luftdruck Luftfeuchtigkeit
    00:00 +22°C° 1.2 mm 3 m/S 761 mmHg 92%
    01:00 +22°C° 1.2 mm 3 m/S 760 mmHg 92%
    02:00 +22°C° 1 mm 3 m/S 760 mmHg 92%
    03:00 +22°C° 1 mm 3 m/S 759 mmHg 92%
    04:00 +23°C° 1 mm 2 m/S 759 mmHg 93%
    05:00 +23°C° 1.9 mm 2 m/S 759 mmHg 93%
    06:00 +23°C° 1.9 mm 2 m/S 760 mmHg 93%
    07:00 +23°C° 1.9 mm 2 m/S 760 mmHg 94%
    08:00 +23°C° 3.7 mm 2 m/S 760 mmHg 93%
    09:00 +23°C° 3.7 mm 2 m/S 760 mmHg 93%
    10:00 +23°C° 3.7 mm 2 m/S 761 mmHg 93%
    11:00 +23°C° 3.1 mm 2 m/S 760 mmHg 92%
    12:00 +24°C° 3.1 mm 3 m/S 759 mmHg 91%
    13:00 +24°C° 3.1 mm 3 m/S 759 mmHg 90%
    14:00 +24°C° 1 mm 3 m/S 758 mmHg 91%
    15:00 +24°C° 1 mm 3 m/S 758 mmHg 91%
    16:00 +24°C° 1 mm 3 m/S 757 mmHg 91%
    17:00 +24°C° 0.4 mm 3 m/S 758 mmHg 91%
    18:00 +24°C° 0.4 mm 2 m/S 758 mmHg 92%
    19:00 +24°C° 0.4 mm 2 m/S 758 mmHg 93%
    20:00 +24°C° 0.2 mm 2 m/S 758 mmHg 93%
    21:00 +24°C° 0.2 mm 2 m/S 759 mmHg 93%
    22:00 +23°C° 0.2 mm 2 m/S 759 mmHg 93%
    23:00 +23°C° 0 mm 2 m/S 758 mmHg 94%

    29 März, Freitag

    Zeit Temperatur Niederschläge Wind Luftdruck Luftfeuchtigkeit
    00:00 +23°C° 0 mm 2 m/S 758 mmHg 94%
    01:00 +23°C° 0 mm 1 m/S 757 mmHg 95%
    02:00 +23°C° 0 mm 1 m/S 757 mmHg 95%
    03:00 +23°C° 0 mm 1 m/S 757 mmHg 95%
    04:00 +23°C° 0 mm 1 m/S 757 mmHg 95%
    05:00 +23°C° 0 mm 1 m/S 757 mmHg 94%
    06:00 +23°C° 0 mm 1 m/S 757 mmHg 93%
    07:00 +23°C° 0 mm 1 m/S 758 mmHg 92%
    08:00 +24°C° 0 mm 0 m/S 758 mmHg 82%
    09:00 +26°C° 0 mm 0 m/S 758 mmHg 71%
    10:00 +29°C° 0 mm 0 m/S 758 mmHg 61%
    11:00 +31°C° 0 mm 1 m/S 757 mmHg 58%
    12:00 +32°C° 0 mm 1 m/S 756 mmHg 56%
    13:00 +32°C° 0 mm 2 m/S 756 mmHg 53%
    14:00 +31°C° 0 mm 2 m/S 755 mmHg 57%
    15:00 +30°C° 0 mm 3 m/S 755 mmHg 62%
    16:00 +30°C° 0 mm 3 m/S 755 mmHg 66%
    17:00 +28°C° 0 mm 3 m/S 755 mmHg 72%
    18:00 +27°C° 0 mm 3 m/S 755 mmHg 78%
    19:00 +26°C° 0 mm 3 m/S 756 mmHg 85%
    20:00 +26°C° 0 mm 3 m/S 756 mmHg 85%
    21:00 +26°C° 0 mm 3 m/S 756 mmHg 86%
    22:00 +26°C° 0 mm 3 m/S 756 mmHg 87%
    23:00 +26°C° 0 mm 3 m/S 756 mmHg 86%
    Mehr zeigen